Theta_e
322 322 322 324 323 320 318 315 311 309 312 318 317 324 323 324 323 324 323 321 321 317 316 317 317 316 315 314 314 315 315 314 315 315 315 316 317 318
322 323 322 321 321 321 317 317 316 313 311 317 318 322 323 322 323 323 324 322 319 317 317 317 316 315 315 314 313 313 314 313 311 310 311 313 314 316
321 320 319 321 319 319 319 319 318 317 313 316 319 322 323 322 322 322 322 321 321 316 316 316 315 314 313 313 312 311 309 308 307 306 307 308 310 311
321 320 317 317 319 321 318 319 319 319 316 314 318 317 320 321 321 320 319 318 319 318 315 316 314 312 312 311 311 309 306 305 304 304 304 305 306 307
319 317 317 318 317 318 319 318 317 316 317 314 314 316 317 317 316 318 317 317 316 317 316 316 313 313 313 312 310 308 306 304 303 302 302 302 303 304
320 319 318 317 316 316 316 317 316 314 314 312 312 312 313 316 313 311 309 312 312 314 315 314 312 314 313 312 311 310 306 304 302 301 301 300 300 301
320 318 317 311 306 307 310 312 311 309 309 308 308 309 309 308 307 308 307 309 311 313 313 313 314 314 314 313 313 310 306 304 301 301 300 299 299 299
316 316 316 313 311 305 304 304 303 306 305 304 305 305 306 305 305 305 306 305 302 311 308 308 310 310 312 314 306 306 304 302 301 300 299 298 298 298
310 312 312 310 306 307 307 307 307 302 301 302 303 302 302 303 304 304 304 301 301 307 309 306 309 308 311 310 305 303 303 301 299 299 298 298 297 297
312 312 312 307 299 298 304 307 307 308 306 301 301 302 303 304 304 303 304 304 306 307 308 299 306 306 308 309 304 303 302 299 298 298 298 297 297 296
308 304 305 303 292 292 300 302 302 303 300 299 298 296 295 295 297 301 300 298 296 298 304 299 301 301 304 306 307 304 301 299 298 298 298 298 296 296
309 306 293 294 290 290 297 298 297 297 300 302 304 304 302 304 300 304 300 297 297 295 303 298 298 298 295 305 303 304 301 300 299 298 298 297 296 300
304 303 300 291 291 290 291 296 294 294 300 302 302 302 303 304 304 305 303 301 298 298 302 300 297 297 296 296 298 301 301 298 299 299 298 297 296 295
300 298 296 290 290 290 293 289 290 293 299 299 299 298 300 301 303 304 305 304 303 302 302 301 297 296 294 293 294 297 297 297 299 297 298 298 296 296
298 292 290 290 291 294 292 291 293 297 296 296 297 298 300 302 304 304 303 305 304 304 302 302 299 297 296 294 293 294 292 295 297 297 297 297 296 295
296 299 294 293 290 293 295 296 297 296 295 295 297 299 301 301 299 300 298 299 298 298 301 301 299 298 295 295 295 291 292 291 295 297 297 296 295 295
295 298 297 296 295 294 295 296 296 296 295 296 296 297 298 298 297 298 296 296 294 294 295 297 298 298 297 295 291 291 292 293 295 296 295 293 294 294
296 295 294 294 293 292 292 293 294 294 295 295 295 296 296 296 297 296 294 293 293 293 293 294 294 293 294 297 296 291 291 292 295 296 295 293 293 294
295 294 293 293 292 292 292 292 292 293 295 294 294 295 295 296 296 293 292 291 291 292 292 293 293 291 289 288 293 296 291 292 293 295 296 293 292 293
294 293 293 292 292 291 291 291 292 292 292 293 294 294 294 295 295 292 291 289 289 291 291 292 292 292 290 289 289 292 292 292 292 293 293 296 294 294
293 293 293 292 292 291 291 291 292 291 291 292 292 293 293 294 294 294 292 288 287 289 289 289 292 288 296 295 291 291 294 295 294 291 291 292 292 291
293 293 293 292 291 291 291 291 291 291 291 291 291 292 293 294 293 295 292 290 288 288 289 291 295 296 294 293 291 291 293 295 296 294 294 292 290 289
293 293 292 292 291 291 291 290 290 290 290 290 290 291 292 292 294 295 294 292 289 288 289 288 293 295 293 294 292 294 295 296 296 293 292 293 292 292
Wind_Speed
1 1 4 2 3 3 3 4 6 8 10 8 8 9 9 9 7 12 11 12 13 7 9 11 12 14 16 17 17 17 16 16 17 18 18 17 17 17
1 2 4 4 3 2 3 5 5 5 9 10 9 10 10 10 9 12 12 14 8 2 8 12 12 11 12 13 15 15 15 17 18 20 20 20 18 18
3 2 3 4 5 4 5 5 6 7 9 9 10 10 11 11 11 12 11 11 9 5 11 12 11 10 11 9 9 11 13 14 17 21 23 21 19 19
3 2 3 4 5 2 6 5 7 9 9 13 11 11 11 12 11 14 10 10 11 8 16 12 7 11 13 9 3 3 7 10 15 22 19 20 20 20
2 3 3 5 6 7 7 7 8 9 10 10 12 11 11 10 12 12 11 12 9 14 11 11 3 7 14 9 2 2 7 8 12 18 20 20 20 19
2 4 5 7 8 9 8 8 9 11 11 11 11 11 11 12 12 12 12 10 11 12 11 12 10 7 12 5 5 3 7 9 12 17 17 18 18 18
1 4 7 6 4 7 8 9 10 10 10 11 12 12 13 13 13 12 13 12 11 10 11 12 12 11 11 7 7 10 10 8 15 18 18 18 17 18
5 7 5 10 4 4 2 5 5 9 11 11 12 12 13 14 13 13 13 13 13 8 12 10 10 10 11 10 10 7 11 8 16 18 20 20 19 19
5 4 4 8 11 12 10 9 8 10 7 10 13 13 15 14 14 15 15 13 12 13 12 12 11 11 11 10 10 11 10 12 16 19 20 20 19 18
8 8 8 8 11 13 14 11 12 12 10 10 11 12 12 12 12 13 15 12 12 12 10 5 13 13 14 10 8 12 14 14 18 20 21 20 19 22
8 10 10 10 13 15 14 13 13 11 12 6 13 14 14 14 14 9 10 11 10 12 5 10 11 13 12 8 10 12 12 16 18 17 19 18 20 23
4 10 17 12 11 14 13 12 13 13 13 13 11 8 6 5 14 6 9 8 8 6 9 9 10 9 6 6 12 10 10 15 16 18 16 18 20 12
6 7 9 10 8 10 11 12 13 15 15 10 9 8 9 9 9 9 9 9 8 7 8 7 8 8 6 9 8 8 10 12 10 13 17 18 17 15
7 8 8 8 9 4 9 11 15 16 10 10 9 9 10 10 11 10 10 10 9 8 9 10 6 8 7 8 6 10 11 9 9 10 10 13 15 17
7 3 7 9 10 3 3 12 12 10 10 10 10 10 10 10 12 11 12 14 11 8 9 11 9 9 7 6 7 8 12 9 9 10 10 10 10 11
2 2 4 8 6 5 7 8 9 9 10 9 10 10 10 10 11 12 12 12 11 10 12 13 12 11 6 4 6 9 9 6 9 9 8 7 8 9
11 6 8 8 9 9 9 10 9 10 10 9 9 10 11 11 11 11 12 12 11 11 11 11 12 12 5 5 6 8 9 7 8 8 7 7 9 10
4 8 8 9 9 10 10 10 10 11 11 10 10 10 11 11 12 11 12 12 12 11 11 9 9 8 4 3 10 9 8 8 8 7 7 5 9 11
8 8 9 9 9 10 10 9 10 11 13 10 10 10 10 11 11 11 12 12 12 11 10 9 8 7 5 6 4 12 9 8 8 6 6 7 7 8
7 8 8 9 9 10 10 10 10 10 11 12 11 11 11 10 11 10 10 13 12 11 10 9 7 7 6 6 4 4 15 10 8 6 5 4 4 9
7 7 8 9 9 9 9 9 10 10 11 11 11 12 12 11 12 11 10 10 13 10 11 10 10 9 5 4 2 4 6 13 15 10 7 4 4 6
7 7 7 8 9 9 10 10 10 10 11 11 12 12 12 11 12 12 10 10 11 10 10 9 10 6 4 4 4 4 5 7 8 17 18 15 5 5
7 7 7 7 8 9 10 10 11 11 11 11 11 12 12 12 12 12 11 9 10 11 11 10 9 5 4 4 3 4 8 4 6 7 6 10 12 12
Wind_Direction
137 273 291 352 28 30 344 323 332 327 334 10 342 5 352 322 18 328 318 352 297 293 329 326 321 336 345 349 348 345 349 351 348 342 335 329 323 313
136 75 345 5 26 336 265 241 229 289 306 333 337 343 336 325 340 321 320 290 169 66 329 323 316 324 335 341 348 354 358 2 355 347 338 331 325 319
74 63 23 3 347 349 319 332 321 331 318 332 318 336 310 327 316 323 316 321 336 86 347 311 312 313 319 327 350 13 12 360 352 342 329 321 318 316
77 0 352 344 336 353 323 343 331 318 322 318 324 313 322 316 325 315 330 330 326 360 313 284 294 332 304 301 314 52 1 0 347 340 333 324 316 313
58 289 5 353 358 351 332 339 340 331 320 319 307 315 322 327 327 321 335 320 319 331 311 257 350 299 301 273 220 55 357 354 338 336 329 323 317 314
95 25 4 5 358 344 335 347 354 329 325 313 315 319 321 339 327 331 328 328 325 331 295 345 290 310 288 273 146 67 11 354 336 331 324 323 319 314
73 358 60 35 44 11 344 357 345 327 325 324 321 323 333 339 332 333 322 321 329 314 352 330 332 332 320 321 10 19 3 343 339 332 327 328 321 314
27 16 6 43 23 156 43 301 302 329 322 325 318 329 327 322 332 329 319 332 332 336 322 315 336 315 306 340 51 26 350 349 342 336 335 330 324 318
40 20 349 48 13 348 328 296 256 217 246 316 318 327 321 334 327 327 328 322 316 311 329 328 329 311 342 348 57 11 2 342 343 338 335 328 323 316
39 25 27 28 22 348 322 333 331 322 343 321 324 316 319 324 322 318 305 321 317 337 13 316 324 338 332 324 51 19 355 345 343 336 334 331 327 319
79 42 24 24 10 349 336 341 329 333 333 258 252 258 258 256 261 306 335 329 331 328 26 346 324 323 317 321 356 8 349 340 338 332 332 334 337 320
125 120 67 24 9 358 342 349 336 344 324 325 326 319 274 319 232 300 337 328 324 317 352 332 324 337 319 304 342 339 341 344 337 338 338 343 342 341
27 17 43 8 357 358 333 6 336 313 310 325 336 346 344 344 348 353 346 329 331 316 342 341 320 327 305 313 317 340 340 337 339 342 349 343 344 347
26 27 23 337 318 318 342 316 298 302 345 340 348 353 349 349 345 350 344 334 331 318 332 342 314 327 314 310 330 331 346 334 339 345 346 344 345 345
24 37 276 279 294 242 318 282 308 1 353 352 348 350 348 346 342 353 345 344 341 352 349 344 338 324 317 319 327 339 335 337 343 349 350 352 353 351
143 37 320 277 254 306 344 359 9 2 351 355 348 344 343 352 3 358 347 345 337 352 350 354 345 334 333 348 342 340 335 331 332 351 346 353 359 5
316 17 14 12 7 6 3 2 5 357 359 355 352 352 351 348 7 2 353 346 343 353 346 348 345 350 351 15 359 351 341 336 338 351 353 3 14 17
17 21 18 12 8 3 1 359 0 2 355 350 354 356 355 346 352 9 1 349 341 349 343 343 339 347 349 69 19 353 350 341 341 357 5 3 26 17
31 25 19 12 7 3 1 359 357 2 347 349 352 355 358 350 353 6 357 351 344 338 342 335 341 348 348 4 335 356 350 350 343 354 15 23 18 25
28 23 14 9 7 2 1 357 351 0 353 349 352 352 355 352 355 4 355 350 340 335 335 334 337 351 344 348 336 326 348 10 3 352 355 13 17 3
22 22 15 8 5 1 1 357 353 360 353 351 352 349 351 351 354 359 358 352 339 341 333 335 327 315 333 321 344 351 1 18 39 25 358 345 1 14
18 11 14 9 2 1 360 357 357 1 359 353 351 349 347 349 354 349 6 354 346 339 329 326 324 343 351 356 25 353 29 41 40 51 45 44 358 32
14 2 8 8 5 3 360 357 358 359 360 354 349 346 346 349 347 343 5 358 348 341 340 331 327 342 350 2 3 354 9 22 61 49 41 52 72 84